• In Austria
  • List of Countries
  • For 7 days
  • Water Temperature
  • Satellite Maps
  • Weather Map
  • News
  • Weather Widgets
  • user-avatar
    Login

    Hourly Weather Beverly

    Today, 23 January, Tuesday

    Time Temperature Precipitation Wind Pressure Humidity
    00:00 +2°C° 0 mm 5 mps 760 mmHg 89%
    01:00 +2°C° 0 mm 5 mps 759 mmHg 89%
    02:00 +2°C° 0 mm 6 mps 759 mmHg 90%
    03:00 +2°C° 0 mm 6 mps 759 mmHg 91%
    04:00 +3°C° 0 mm 6 mps 758 mmHg 92%
    05:00 +3°C° 0 mm 7 mps 758 mmHg 93%
    06:00 +3°C° 0 mm 7 mps 757 mmHg 93%
    07:00 +4°C° 0.1 mm 8 mps 756 mmHg 93%
    08:00 +6°C° 0.1 mm 8 mps 756 mmHg 93%
    09:00 +7°C° 0.1 mm 9 mps 755 mmHg 92%
    10:00 +8°C° 0 mm 9 mps 755 mmHg 88%
    11:00 +10°C° 0 mm 9 mps 754 mmHg 85%
    12:00 +11°C° 0 mm 9 mps 754 mmHg 81%
    13:00 +11°C° 0 mm 9 mps 754 mmHg 80%
    14:00 +11°C° 0 mm 9 mps 754 mmHg 79%
    15:00 +11°C° 0 mm 9 mps 754 mmHg 79%
    16:00 +11°C° 0 mm 9 mps 754 mmHg 80%
    17:00 +10°C° 0 mm 8 mps 754 mmHg 82%
    18:00 +9°C° 0 mm 8 mps 754 mmHg 83%
    19:00 +9°C° 0 mm 8 mps 755 mmHg 83%
    20:00 +8°C° 0 mm 7 mps 755 mmHg 84%
    21:00 +8°C° 0 mm 7 mps 755 mmHg 84%
    22:00 +8°C° 0 mm 7 mps 755 mmHg 85%
    23:00 +6°C° 0 mm 7 mps 755 mmHg 86%

    Tomorrow, 24 January, Wednesday

    Time Temperature Precipitation Wind Pressure Humidity
    00:00 +6°C° 0 mm 7 mps 755 mmHg 87%
    01:00 +7°C° 0 mm 8 mps 754 mmHg 86%
    02:00 +7°C° 0 mm 9 mps 753 mmHg 85%
    03:00 +7°C° 0 mm 10 mps 752 mmHg 83%
    04:00 +8°C° 0 mm 11 mps 750 mmHg 82%
    05:00 +9°C° 0 mm 12 mps 748 mmHg 81%
    06:00 +10°C° 0 mm 13 mps 747 mmHg 79%
    07:00 +10°C° 0.9 mm 13 mps 746 mmHg 79%
    08:00 +10°C° 0.9 mm 13 mps 745 mmHg 79%
    09:00 +10°C° 0.9 mm 13 mps 744 mmHg 79%
    10:00 +9°C° 1.5 mm 12 mps 745 mmHg 76%
    11:00 +8°C° 1.5 mm 11 mps 746 mmHg 72%
    12:00 +6°C° 1.5 mm 10 mps 746 mmHg 69%
    13:00 +6°C° 0 mm 9 mps 746 mmHg 68%
    14:00 +6°C° 0 mm 9 mps 747 mmHg 66%
    15:00 +6°C° 0 mm 8 mps 747 mmHg 65%
    16:00 +5°C° 0 mm 8 mps 748 mmHg 68%
    17:00 +5°C° 0 mm 8 mps 748 mmHg 71%
    18:00 +4°C° 0 mm 8 mps 748 mmHg 74%
    19:00 +4°C° 0 mm 8 mps 749 mmHg 75%
    20:00 +4°C° 0 mm 8 mps 749 mmHg 75%
    21:00 +4°C° 0 mm 8 mps 749 mmHg 75%
    22:00 +3°C° 0 mm 9 mps 749 mmHg 75%
    23:00 +2°C° 0 mm 9 mps 749 mmHg 75%

    Day after tomorrow, 25 January, Thursday

    Time Temperature Precipitation Wind Pressure Humidity
    00:00 +2°C° 0 mm 9 mps 749 mmHg 75%
    01:00 +2°C° 0 mm 9 mps 749 mmHg 75%
    02:00 +2°C° 0 mm 9 mps 749 mmHg 75%
    03:00 +2°C° 0 mm 9 mps 749 mmHg 76%
    04:00 +2°C° 0 mm 9 mps 749 mmHg 76%
    05:00 +2°C° 0 mm 9 mps 749 mmHg 76%
    06:00 +2°C° 0 mm 9 mps 749 mmHg 76%
    07:00 +2°C° 0 mm 9 mps 749 mmHg 76%
    08:00 +2°C° 0 mm 9 mps 749 mmHg 76%
    09:00 +2°C° 0 mm 9 mps 749 mmHg 75%
    10:00 +3°C° 0 mm 9 mps 749 mmHg 72%
    11:00 +5°C° 0 mm 10 mps 749 mmHg 68%
    12:00 +5°C° 0 mm 10 mps 749 mmHg 64%
    13:00 +5°C° 0 mm 9 mps 749 mmHg 65%
    14:00 +5°C° 0 mm 9 mps 749 mmHg 65%
    15:00 +6°C° 0 mm 8 mps 749 mmHg 66%
    16:00 +5°C° 0 mm 8 mps 750 mmHg 69%
    17:00 +4°C° 0 mm 7 mps 750 mmHg 72%
    18:00 +3°C° 0 mm 7 mps 750 mmHg 76%
    19:00 +3°C° 0 mm 7 mps 751 mmHg 78%
    20:00 +3°C° 0 mm 7 mps 752 mmHg 80%
    21:00 +2°C° 0 mm 7 mps 752 mmHg 82%
    22:00 +2°C° 0 mm 7 mps 753 mmHg 82%
    23:00 +2°C° 0 mm 7 mps 753 mmHg 82%

    26 January, Friday

    Time Temperature Precipitation Wind Pressure Humidity
    00:00 +2°C° 0 mm 7 mps 754 mmHg 82%
    01:00 +2°C° 0 mm 7 mps 755 mmHg 82%
    02:00 +2°C° 0 mm 7 mps 755 mmHg 82%
    03:00 +2°C° 0 mm 7 mps 756 mmHg 82%
    04:00 0°C° 0 mm 7 mps 756 mmHg 83%
    05:00 +1°C° 0 mm 6 mps 757 mmHg 84%
    06:00 +1°C° 0 mm 6 mps 758 mmHg 85%
    07:00 +1°C° 0 mm 6 mps 759 mmHg 85%
    08:00 +1°C° 0 mm 6 mps 760 mmHg 85%
    09:00 +1°C° 0 mm 6 mps 761 mmHg 85%
    10:00 +2°C° 0 mm 6 mps 761 mmHg 80%
    11:00 +3°C° 0 mm 6 mps 762 mmHg 76%
    12:00 +5°C° 0 mm 5 mps 763 mmHg 71%
    13:00 +5°C° 0 mm 5 mps 763 mmHg 71%
    14:00 +5°C° 0 mm 5 mps 763 mmHg 71%
    15:00 +5°C° 0 mm 4 mps 764 mmHg 70%
    16:00 +4°C° 0 mm 4 mps 764 mmHg 73%
    17:00 +3°C° 0 mm 3 mps 764 mmHg 76%
    18:00 +2°C° 0 mm 3 mps 765 mmHg 79%
    19:00 +2°C° 0 mm 2 mps 765 mmHg 80%
    20:00 +2°C° 0 mm 2 mps 765 mmHg 81%
    21:00 +2°C° 0 mm 2 mps 766 mmHg 82%
    22:00 +2°C° 0 mm 1 mps 766 mmHg 82%
    23:00 +2°C° 0 mm 1 mps 766 mmHg 82%

    27 January, Saturday

    Time Temperature Precipitation Wind Pressure Humidity
    00:00 +2°C° 0 mm 1 mps 767 mmHg 83%
    01:00 +2°C° 0 mm 1 mps 767 mmHg 83%
    02:00 +2°C° 0 mm 1 mps 767 mmHg 84%
    03:00 +2°C° 0 mm 1 mps 767 mmHg 85%
    04:00 +1°C° 0 mm 2 mps 767 mmHg 86%
    05:00 +1°C° 0 mm 2 mps 767 mmHg 87%
    06:00 0°C° 0 mm 3 mps 767 mmHg 89%
    07:00 0°C° 0 mm 3 mps 767 mmHg 89%
    08:00 0°C° 0 mm 4 mps 767 mmHg 90%
    09:00 0°C° 0 mm 5 mps 767 mmHg 90%
    10:00 +1°C° 0 mm 5 mps 767 mmHg 88%
    11:00 +3°C° 0 mm 6 mps 767 mmHg 86%
    12:00 +4°C° 0 mm 7 mps 767 mmHg 83%
    13:00 +4°C° 0.1 mm 7 mps 766 mmHg 85%
    14:00 +5°C° 0.1 mm 7 mps 766 mmHg 87%
    15:00 +5°C° 0.1 mm 8 mps 765 mmHg 88%
    16:00 +5°C° 0.4 mm 8 mps 765 mmHg 89%
    17:00 +6°C° 0.4 mm 8 mps 765 mmHg 90%
    18:00 +6°C° 0.4 mm 8 mps 764 mmHg 90%
    19:00 +7°C° 0.1 mm 8 mps 765 mmHg 91%
    20:00 +7°C° 0.1 mm 8 mps 765 mmHg 91%
    21:00 +9°C° 0.1 mm 7 mps 765 mmHg 92%
    22:00 +9°C° 0 mm 7 mps 765 mmHg 91%
    23:00 +9°C° 0 mm 7 mps 765 mmHg 91%

    28 January, Sunday

    Time Temperature Precipitation Wind Pressure Humidity
    00:00 +9°C° 0 mm 7 mps 766 mmHg 91%
    01:00 +9°C° 0 mm 7 mps 766 mmHg 90%
    02:00 +10°C° 0 mm 7 mps 766 mmHg 90%
    03:00 +10°C° 0 mm 7 mps 766 mmHg 90%
    04:00 +10°C° 0 mm 7 mps 767 mmHg 89%
    05:00 +10°C° 0 mm 7 mps 767 mmHg 89%
    06:00 +10°C° 0 mm 7 mps 767 mmHg 89%
    07:00 +10°C° 0 mm 7 mps 768 mmHg 89%
    08:00 +10°C° 0 mm 7 mps 768 mmHg 89%
    09:00 +10°C° 0 mm 7 mps 769 mmHg 89%
    10:00 +10°C° 0 mm 7 mps 769 mmHg 86%
    11:00 +11°C° 0 mm 7 mps 769 mmHg 83%
    12:00 +12°C° 0 mm 7 mps 769 mmHg 79%
    13:00 +12°C° 0 mm 7 mps 769 mmHg 79%
    14:00 +12°C° 0 mm 7 mps 769 mmHg 79%
    15:00 +13°C° 0 mm 6 mps 769 mmHg 79%
    16:00 +11°C° 0 mm 7 mps 769 mmHg 80%
    17:00 +11°C° 0 mm 7 mps 770 mmHg 81%
    18:00 +10°C° 0 mm 7 mps 770 mmHg 82%
    19:00 +10°C° 0 mm 7 mps 770 mmHg 83%
    20:00 +9°C° 0 mm 7 mps 770 mmHg 84%
    21:00 +9°C° 0 mm 7 mps 770 mmHg 85%
    22:00 +9°C° 0 mm 7 mps 770 mmHg 86%
    23:00 +8°C° 0 mm 7 mps 770 mmHg 86%
    Show more